Year,Month,Day,Hour,Minute,Value (Times are PST for temperature in C)
2021,06,10,00,00,8.80
2021,06,10,00,01,8.80
2021,06,10,00,02,8.80
2021,06,10,00,03,8.80
2021,06,10,00,04,8.80
2021,06,10,00,05,8.80
2021,06,10,00,06,8.80
2021,06,10,00,07,8.80
2021,06,10,00,08,8.80
2021,06,10,00,09,8.80
2021,06,10,00,10,8.80
2021,06,10,00,11,8.80
2021,06,10,00,12,8.70
2021,06,10,00,13,8.70
2021,06,10,00,14,8.70
2021,06,10,00,15,8.70
2021,06,10,00,16,8.70
2021,06,10,00,17,8.60
2021,06,10,00,18,8.60
2021,06,10,00,19,8.60
2021,06,10,00,20,8.60
2021,06,10,00,21,8.50
2021,06,10,00,22,8.50
2021,06,10,00,23,8.50
2021,06,10,00,24,8.40
2021,06,10,00,25,8.40
2021,06,10,00,26,8.40
2021,06,10,00,27,8.40
2021,06,10,00,28,8.40
2021,06,10,00,29,8.40
2021,06,10,00,30,8.40
2021,06,10,00,31,8.40
2021,06,10,00,32,8.40
2021,06,10,00,33,8.30
2021,06,10,00,34,8.30
2021,06,10,00,35,8.30
2021,06,10,00,36,8.30
2021,06,10,00,37,8.30
2021,06,10,00,38,8.30
2021,06,10,00,39,8.30
2021,06,10,00,40,8.30
2021,06,10,00,41,8.30
2021,06,10,00,42,8.30
2021,06,10,00,43,8.30
2021,06,10,00,44,8.30
2021,06,10,00,45,8.30
2021,06,10,00,46,8.30
2021,06,10,00,47,8.30
2021,06,10,00,48,8.30
2021,06,10,00,49,8.30
2021,06,10,00,50,8.30
2021,06,10,00,51,8.30
2021,06,10,00,52,8.30
2021,06,10,00,53,8.30
2021,06,10,00,54,8.30
2021,06,10,00,55,8.30
2021,06,10,00,56,8.30
2021,06,10,00,57,8.30
2021,06,10,00,58,8.30
2021,06,10,00,59,8.30
2021,06,10,01,00,8.30
2021,06,10,01,01,8.30
2021,06,10,01,02,8.30
2021,06,10,01,03,8.30
2021,06,10,01,04,8.30
2021,06,10,01,05,8.30
2021,06,10,01,06,8.30
2021,06,10,01,07,8.30
2021,06,10,01,08,8.30
2021,06,10,01,09,8.30
2021,06,10,01,10,8.30
2021,06,10,01,11,8.30
2021,06,10,01,12,8.30
2021,06,10,01,13,8.30
2021,06,10,01,14,8.30
2021,06,10,01,15,8.30
2021,06,10,01,16,8.30
2021,06,10,01,17,8.30
2021,06,10,01,18,8.30
2021,06,10,01,19,8.40
2021,06,10,01,20,8.40
2021,06,10,01,21,8.40
2021,06,10,01,22,8.40
2021,06,10,01,23,8.40
2021,06,10,01,24,8.40
2021,06,10,01,25,8.40
2021,06,10,01,26,8.40
2021,06,10,01,27,8.40
2021,06,10,01,28,8.40
2021,06,10,01,29,8.40
2021,06,10,01,30,8.40
2021,06,10,01,31,8.40
2021,06,10,01,32,8.40
2021,06,10,01,33,8.40
2021,06,10,01,34,8.40
2021,06,10,01,35,8.40
2021,06,10,01,36,8.50
2021,06,10,01,37,8.50
2021,06,10,01,38,8.50
2021,06,10,01,39,8.50
2021,06,10,01,40,8.50
2021,06,10,01,41,8.50
2021,06,10,01,42,8.60
2021,06,10,01,43,8.60
2021,06,10,01,44,8.60
2021,06,10,01,45,8.60
2021,06,10,01,46,8.70
2021,06,10,01,47,8.70
2021,06,10,01,48,8.70
2021,06,10,01,49,8.80
2021,06,10,01,50,8.80
2021,06,10,01,51,8.80
2021,06,10,01,52,8.80
2021,06,10,01,53,8.80
2021,06,10,01,54,8.80
2021,06,10,01,55,8.80
2021,06,10,01,56,8.80
2021,06,10,01,57,8.80
2021,06,10,01,58,8.80
2021,06,10,01,59,8.80
2021,06,10,02,00,8.80
2021,06,10,02,01,8.80
2021,06,10,02,02,8.80
2021,06,10,02,03,8.80
2021,06,10,02,04,8.80
2021,06,10,02,05,8.80
2021,06,10,02,06,8.80
2021,06,10,02,07,8.80
2021,06,10,02,08,8.80
2021,06,10,02,09,8.80
2021,06,10,02,10,8.80
2021,06,10,02,11,8.80
2021,06,10,02,12,8.70
2021,06,10,02,13,8.70
2021,06,10,02,14,8.70
2021,06,10,02,15,8.70
2021,06,10,02,16,8.70
2021,06,10,02,17,8.70
2021,06,10,02,18,8.70
2021,06,10,02,19,8.70
2021,06,10,02,20,8.70
2021,06,10,02,21,8.70
2021,06,10,02,22,8.70
2021,06,10,02,23,8.60
2021,06,10,02,24,8.60
2021,06,10,02,25,8.60
2021,06,10,02,26,8.60
2021,06,10,02,27,8.60
2021,06,10,02,28,8.60
2021,06,10,02,29,8.60
2021,06,10,02,30,8.60
2021,06,10,02,31,8.60
2021,06,10,02,32,8.70
2021,06,10,02,33,8.70
2021,06,10,02,34,8.60
2021,06,10,02,35,8.70
2021,06,10,02,36,8.70
2021,06,10,02,37,8.70
2021,06,10,02,38,8.70
2021,06,10,02,39,8.70
2021,06,10,02,40,8.70
2021,06,10,02,41,8.70
2021,06,10,02,42,8.70
2021,06,10,02,43,8.70
2021,06,10,02,44,8.70
2021,06,10,02,45,8.70
2021,06,10,02,46,8.60
2021,06,10,02,47,8.60
2021,06,10,02,48,8.60
2021,06,10,02,49,8.60
2021,06,10,02,50,8.60
2021,06,10,02,51,8.60
2021,06,10,02,52,8.60
2021,06,10,02,53,8.60
2021,06,10,02,54,8.60
2021,06,10,02,55,8.50
2021,06,10,02,56,8.50
2021,06,10,02,57,8.50
2021,06,10,02,58,8.50
2021,06,10,02,59,8.40
2021,06,10,03,00,8.40
2021,06,10,03,01,8.40
2021,06,10,03,02,8.40
2021,06,10,03,03,8.40
2021,06,10,03,04,8.40
2021,06,10,03,05,8.40
2021,06,10,03,06,8.40
2021,06,10,03,07,8.40
2021,06,10,03,08,8.40
2021,06,10,03,09,8.40
2021,06,10,03,10,8.40
2021,06,10,03,11,8.40
2021,06,10,03,12,8.40
2021,06,10,03,13,8.40
2021,06,10,03,14,8.40
2021,06,10,03,15,8.40
2021,06,10,03,16,8.40
2021,06,10,03,17,8.40
2021,06,10,03,18,8.40
2021,06,10,03,19,8.40
2021,06,10,03,20,8.40
2021,06,10,03,21,8.40
2021,06,10,03,22,8.40
2021,06,10,03,23,8.40
2021,06,10,03,24,8.40
2021,06,10,03,25,8.40
2021,06,10,03,26,8.50
2021,06,10,03,27,8.50
2021,06,10,03,28,8.50
2021,06,10,03,29,8.50
2021,06,10,03,30,8.50
2021,06,10,03,31,8.50
2021,06,10,03,32,8.50
2021,06,10,03,33,8.50
2021,06,10,03,34,8.50
2021,06,10,03,35,8.50
2021,06,10,03,36,8.50
2021,06,10,03,37,8.50
2021,06,10,03,38,8.50
2021,06,10,03,39,8.50
2021,06,10,03,40,8.50
2021,06,10,03,41,8.50
2021,06,10,03,42,8.50
2021,06,10,03,43,8.50
2021,06,10,03,44,8.50
2021,06,10,03,45,8.50
2021,06,10,03,46,8.50
2021,06,10,03,47,8.50
2021,06,10,03,48,8.50
2021,06,10,03,49,8.50
2021,06,10,03,50,8.50
2021,06,10,03,51,8.50
2021,06,10,03,52,8.50
2021,06,10,03,53,8.50
2021,06,10,03,54,8.50
2021,06,10,03,55,8.60
2021,06,10,03,56,8.60
2021,06,10,03,57,8.60
2021,06,10,03,58,8.60
2021,06,10,03,59,8.60
2021,06,10,04,00,8.60
2021,06,10,04,01,8.50
2021,06,10,04,02,8.50
2021,06,10,04,03,8.50
2021,06,10,04,04,8.50
2021,06,10,04,05,8.50
2021,06,10,04,06,8.50
2021,06,10,04,07,8.50
2021,06,10,04,08,8.50
2021,06,10,04,09,8.40
2021,06,10,04,10,8.40
2021,06,10,04,11,8.40
2021,06,10,04,12,8.40
2021,06,10,04,13,8.40
2021,06,10,04,14,8.40
2021,06,10,04,15,8.40
2021,06,10,04,16,8.40
2021,06,10,04,17,8.30
2021,06,10,04,18,8.30
2021,06,10,04,19,8.30
2021,06,10,04,20,8.30
2021,06,10,04,21,8.30
2021,06,10,04,22,8.30
2021,06,10,04,23,8.30
2021,06,10,04,24,8.30
2021,06,10,04,25,8.30
2021,06,10,04,26,8.30
2021,06,10,04,27,8.30
2021,06,10,04,28,8.30
2021,06,10,04,29,8.30
2021,06,10,04,30,8.30
2021,06,10,04,31,8.30
2021,06,10,04,32,8.20
2021,06,10,04,33,8.20
2021,06,10,04,34,8.20
2021,06,10,04,35,8.20
2021,06,10,04,36,8.20
2021,06,10,04,37,8.20
2021,06,10,04,38,8.20
2021,06,10,04,39,8.20
2021,06,10,04,40,8.10
2021,06,10,04,41,8.10
2021,06,10,04,42,8.10
2021,06,10,04,43,8.10
2021,06,10,04,44,8.00
2021,06,10,04,45,8.00
2021,06,10,04,46,8.00
2021,06,10,04,47,8.00
2021,06,10,04,48,7.90
2021,06,10,04,49,7.90
2021,06,10,04,50,7.90
2021,06,10,04,51,7.90
2021,06,10,04,52,7.90
2021,06,10,04,53,7.90
2021,06,10,04,54,7.80
2021,06,10,04,55,7.80
2021,06,10,04,56,7.80
2021,06,10,04,57,7.80
2021,06,10,04,58,7.70
2021,06,10,04,59,7.70
2021,06,10,05,00,7.70
2021,06,10,05,01,7.70
2021,06,10,05,02,7.70
2021,06,10,05,03,7.60
2021,06,10,05,04,7.60
2021,06,10,05,05,7.60
2021,06,10,05,06,7.60
2021,06,10,05,07,7.50
2021,06,10,05,08,7.50
2021,06,10,05,09,7.50
2021,06,10,05,10,7.50
2021,06,10,05,11,7.50
2021,06,10,05,12,7.50
2021,06,10,05,13,7.50
2021,06,10,05,14,7.40
2021,06,10,05,15,7.40
2021,06,10,05,16,7.40
2021,06,10,05,17,7.40
2021,06,10,05,18,7.40
2021,06,10,05,19,7.40
2021,06,10,05,20,7.40
2021,06,10,05,21,7.40
2021,06,10,05,22,7.40
2021,06,10,05,23,7.30
2021,06,10,05,24,7.30
2021,06,10,05,25,7.30
2021,06,10,05,26,7.30
2021,06,10,05,27,7.30
2021,06,10,05,28,7.30
2021,06,10,05,29,7.30
2021,06,10,05,30,7.30
2021,06,10,05,31,7.30
2021,06,10,05,32,7.30
2021,06,10,05,33,7.30
2021,06,10,05,34,7.30
2021,06,10,05,35,7.30
2021,06,10,05,36,7.20
2021,06,10,05,37,7.20
2021,06,10,05,38,7.20
2021,06,10,05,39,7.20
2021,06,10,05,40,7.20
2021,06,10,05,41,7.20
2021,06,10,05,42,7.20
2021,06,10,05,43,7.10
2021,06,10,05,44,7.10
2021,06,10,05,45,7.10
2021,06,10,05,46,7.10
2021,06,10,05,47,7.10
2021,06,10,05,48,7.10
2021,06,10,05,49,7.10
2021,06,10,05,50,7.10
2021,06,10,05,51,7.00
2021,06,10,05,52,7.00
2021,06,10,05,53,7.00
2021,06,10,05,54,6.90
2021,06,10,05,55,6.90
2021,06,10,05,56,6.90
2021,06,10,05,57,6.90
2021,06,10,05,58,6.90
2021,06,10,05,59,6.90
2021,06,10,06,00,6.90
2021,06,10,06,01,6.90
2021,06,10,06,02,6.80
2021,06,10,06,03,6.80
2021,06,10,06,04,6.80
2021,06,10,06,05,6.80
2021,06,10,06,06,6.80
2021,06,10,06,07,6.80
2021,06,10,06,08,6.80
2021,06,10,06,09,6.80
2021,06,10,06,10,6.80
2021,06,10,06,11,6.80
2021,06,10,06,12,6.80
2021,06,10,06,13,6.80
2021,06,10,06,14,6.80
2021,06,10,06,15,6.80
2021,06,10,06,16,6.90
2021,06,10,06,17,6.90
2021,06,10,06,18,6.90
2021,06,10,06,19,6.90
2021,06,10,06,20,6.90
2021,06,10,06,21,7.00
2021,06,10,06,22,7.00
2021,06,10,06,23,7.10
2021,06,10,06,24,7.10
2021,06,10,06,25,7.10
2021,06,10,06,26,7.10
2021,06,10,06,27,7.20
2021,06,10,06,28,7.20
2021,06,10,06,29,7.20
2021,06,10,06,30,7.20
2021,06,10,06,31,7.20
2021,06,10,06,32,7.20
2021,06,10,06,33,7.30
2021,06,10,06,34,7.30
2021,06,10,06,35,7.30
2021,06,10,06,36,7.40
2021,06,10,06,37,7.40
2021,06,10,06,38,7.40
2021,06,10,06,39,7.50
2021,06,10,06,40,7.50
2021,06,10,06,41,7.50
2021,06,10,06,42,7.60
2021,06,10,06,43,7.60
2021,06,10,06,44,7.60
2021,06,10,06,45,7.70
2021,06,10,06,46,7.70
2021,06,10,06,47,7.70
2021,06,10,06,48,7.80
2021,06,10,06,49,7.80
2021,06,10,06,50,7.90
2021,06,10,06,51,7.90
2021,06,10,06,52,8.00
2021,06,10,06,53,8.00
2021,06,10,06,54,8.10
2021,06,10,06,55,8.10
2021,06,10,06,56,8.10
2021,06,10,06,57,8.10
2021,06,10,06,58,8.20
2021,06,10,06,59,8.20
2021,06,10,07,00,8.20
2021,06,10,07,01,8.30
2021,06,10,07,02,8.30
2021,06,10,07,03,8.30
2021,06,10,07,04,8.40
2021,06,10,07,05,8.40
2021,06,10,07,06,8.50
2021,06,10,07,07,8.60
2021,06,10,07,08,8.70
2021,06,10,07,09,8.80
2021,06,10,07,10,8.80
2021,06,10,07,11,8.90
2021,06,10,07,12,9.00
2021,06,10,07,13,9.00
2021,06,10,07,14,9.10
2021,06,10,07,15,9.10
2021,06,10,07,16,9.10
2021,06,10,07,17,9.20
2021,06,10,07,18,9.20
2021,06,10,07,19,9.20
2021,06,10,07,20,9.20
2021,06,10,07,21,9.30
2021,06,10,07,22,9.30
2021,06,10,07,23,9.40
2021,06,10,07,24,9.40
2021,06,10,07,25,9.40
2021,06,10,07,26,9.50
2021,06,10,07,27,9.50
2021,06,10,07,28,9.60
2021,06,10,07,29,9.60
2021,06,10,07,30,9.70
2021,06,10,07,31,9.70
2021,06,10,07,32,9.70
2021,06,10,07,33,9.80
2021,06,10,07,34,9.80
2021,06,10,07,35,9.80
2021,06,10,07,36,9.90
2021,06,10,07,37,9.90
2021,06,10,07,38,10.00
2021,06,10,07,39,10.00
2021,06,10,07,40,10.10
2021,06,10,07,41,10.10
2021,06,10,07,42,10.10
2021,06,10,07,43,10.20
2021,06,10,07,44,10.20
2021,06,10,07,45,10.30
2021,06,10,07,46,10.30
2021,06,10,07,47,10.40
2021,06,10,07,48,10.40
2021,06,10,07,49,10.50
2021,06,10,07,50,10.60
2021,06,10,07,51,10.60
2021,06,10,07,52,10.60
2021,06,10,07,53,10.60
2021,06,10,07,54,10.70
2021,06,10,07,55,10.70
2021,06,10,07,56,10.80
2021,06,10,07,57,10.80
2021,06,10,07,58,10.90
2021,06,10,07,59,11.00
2021,06,10,08,00,11.10
2021,06,10,08,01,11.20
2021,06,10,08,02,11.40
2021,06,10,08,03,11.50
2021,06,10,08,04,11.50
2021,06,10,08,05,11.50
2021,06,10,08,06,11.70
2021,06,10,08,07,11.80
2021,06,10,08,08,11.80
2021,06,10,08,09,11.90
2021,06,10,08,10,12.10
2021,06,10,08,11,12.20
2021,06,10,08,12,12.40
2021,06,10,08,13,12.60
2021,06,10,08,14,12.60
2021,06,10,08,15,12.70
2021,06,10,08,16,12.90
2021,06,10,08,17,13.00
2021,06,10,08,18,13.10
2021,06,10,08,19,13.20
2021,06,10,08,20,13.30
2021,06,10,08,21,13.50
2021,06,10,08,22,13.50
2021,06,10,08,23,13.60
2021,06,10,08,24,13.70
2021,06,10,08,25,13.70
2021,06,10,08,26,13.80
2021,06,10,08,27,13.80
2021,06,10,08,28,13.80
2021,06,10,08,29,13.80
2021,06,10,08,30,13.80
2021,06,10,08,31,13.80
2021,06,10,08,32,13.80
2021,06,10,08,33,13.90
2021,06,10,08,34,13.90
2021,06,10,08,35,13.90
2021,06,10,08,36,13.80
2021,06,10,08,37,13.90
2021,06,10,08,38,13.90
2021,06,10,08,39,13.90
2021,06,10,08,40,14.00
2021,06,10,08,41,14.10
2021,06,10,08,42,14.10
2021,06,10,08,43,14.20
2021,06,10,08,44,14.20
2021,06,10,08,45,14.30
2021,06,10,08,46,14.30
2021,06,10,08,47,14.40
2021,06,10,08,48,14.40
2021,06,10,08,49,14.40
2021,06,10,08,50,14.40
2021,06,10,08,51,14.30
2021,06,10,08,52,14.30
2021,06,10,08,53,14.30
2021,06,10,08,54,14.30
2021,06,10,08,55,14.30
2021,06,10,08,56,14.30
2021,06,10,08,57,14.30
2021,06,10,08,58,14.30
2021,06,10,08,59,14.30
2021,06,10,09,00,14.30
2021,06,10,09,01,14.40
2021,06,10,09,02,14.40
2021,06,10,09,03,14.40
2021,06,10,09,04,14.40
2021,06,10,09,05,14.30
2021,06,10,09,06,14.30
2021,06,10,09,07,14.40
2021,06,10,09,08,14.50
2021,06,10,09,09,14.60
2021,06,10,09,10,14.50
2021,06,10,09,11,14.60
2021,06,10,09,12,14.60
2021,06,10,09,13,14.70
2021,06,10,09,14,14.70
2021,06,10,09,15,14.80
2021,06,10,09,16,14.70
2021,06,10,09,17,14.70
2021,06,10,09,18,14.70
2021,06,10,09,19,14.60
2021,06,10,09,20,14.60
2021,06,10,09,21,14.60
2021,06,10,09,22,14.60
2021,06,10,09,23,14.70
2021,06,10,09,24,14.60
2021,06,10,09,25,14.60
2021,06,10,09,26,14.60
2021,06,10,09,27,14.60
2021,06,10,09,28,14.60
2021,06,10,09,29,14.60
2021,06,10,09,30,14.70
2021,06,10,09,31,14.70
2021,06,10,09,32,14.70
2021,06,10,09,33,14.60
2021,06,10,09,34,14.60
2021,06,10,09,35,14.50
2021,06,10,09,36,14.50
2021,06,10,09,37,14.50
2021,06,10,09,38,14.50
2021,06,10,09,39,14.60
2021,06,10,09,40,14.60
2021,06,10,09,41,14.60
2021,06,10,09,42,14.70
2021,06,10,09,43,14.60
2021,06,10,09,44,14.70
2021,06,10,09,45,14.70
2021,06,10,09,46,14.80
2021,06,10,09,47,14.90
2021,06,10,09,48,15.10
2021,06,10,09,49,15.20
2021,06,10,09,50,15.30
2021,06,10,09,51,15.20
2021,06,10,09,52,15.10
2021,06,10,09,53,15.10
2021,06,10,09,54,15.00
2021,06,10,09,55,15.00
2021,06,10,09,56,15.00
2021,06,10,09,57,15.00
2021,06,10,09,58,15.00
2021,06,10,09,59,15.00
2021,06,10,10,00,14.90
2021,06,10,10,01,15.00
2021,06,10,10,02,15.00
2021,06,10,10,03,15.00
2021,06,10,10,04,15.10
2021,06,10,10,05,15.20
2021,06,10,10,06,15.40
2021,06,10,10,07,15.50
2021,06,10,10,08,15.50
2021,06,10,10,09,15.40
2021,06,10,10,10,15.40
2021,06,10,10,11,15.40
2021,06,10,10,12,15.30
2021,06,10,10,13,15.30
2021,06,10,10,14,15.30
2021,06,10,10,15,15.40
2021,06,10,10,16,15.40
2021,06,10,10,17,15.30
2021,06,10,10,18,15.30
2021,06,10,10,19,15.20
2021,06,10,10,20,15.20
2021,06,10,10,21,15.20
2021,06,10,10,22,15.30
2021,06,10,10,23,15.30
2021,06,10,10,24,15.30
2021,06,10,10,25,15.30
2021,06,10,10,26,15.40
2021,06,10,10,27,15.40
2021,06,10,10,28,15.40
2021,06,10,10,29,15.50
2021,06,10,10,30,15.50
2021,06,10,10,31,15.50
2021,06,10,10,32,15.60
2021,06,10,10,33,15.60
2021,06,10,10,34,15.50
2021,06,10,10,35,15.40
2021,06,10,10,36,15.50
2021,06,10,10,37,15.50
2021,06,10,10,38,15.40
2021,06,10,10,39,15.30
2021,06,10,10,40,15.30
2021,06,10,10,41,15.30
2021,06,10,10,42,15.20
2021,06,10,10,43,15.20
2021,06,10,10,44,15.10
2021,06,10,10,45,15.00
2021,06,10,10,46,15.00
2021,06,10,10,47,15.00
2021,06,10,10,48,14.90
2021,06,10,10,49,14.90
2021,06,10,10,50,14.90
2021,06,10,10,51,15.00
2021,06,10,10,52,15.10
2021,06,10,10,53,15.20
2021,06,10,10,54,15.20
2021,06,10,10,55,15.40
2021,06,10,10,56,15.50
2021,06,10,10,57,15.60
2021,06,10,10,58,15.80
2021,06,10,10,59,15.90
2021,06,10,11,00,15.90
2021,06,10,11,01,15.90
2021,06,10,11,02,15.90
2021,06,10,11,03,15.90
2021,06,10,11,04,16.00
2021,06,10,11,05,16.00
2021,06,10,11,06,16.10
2021,06,10,11,07,16.10
2021,06,10,11,08,16.10
2021,06,10,11,09,16.10
2021,06,10,11,10,16.00
2021,06,10,11,11,16.00
2021,06,10,11,12,15.90
2021,06,10,11,13,15.80
2021,06,10,11,14,15.70
2021,06,10,11,15,15.50
2021,06,10,11,16,15.30
2021,06,10,11,17,15.20
2021,06,10,11,18,15.10
2021,06,10,11,19,15.00
2021,06,10,11,20,15.00
2021,06,10,11,21,14.90
2021,06,10,11,22,14.90
2021,06,10,11,23,15.00
2021,06,10,11,24,15.10
2021,06,10,11,25,15.10
2021,06,10,11,26,15.20
2021,06,10,11,27,15.40
2021,06,10,11,28,15.50
2021,06,10,11,29,15.50
2021,06,10,11,30,15.40
2021,06,10,11,31,15.40
2021,06,10,11,32,15.40
2021,06,10,11,33,15.40
2021,06,10,11,34,15.40
2021,06,10,11,35,15.40
2021,06,10,11,36,15.40
2021,06,10,11,37,15.40
2021,06,10,11,38,15.40
2021,06,10,11,39,15.40
2021,06,10,11,40,15.30
2021,06,10,11,41,15.40
2021,06,10,11,42,15.40
2021,06,10,11,43,15.40
2021,06,10,11,44,15.40
2021,06,10,11,45,15.50
2021,06,10,11,46,15.40
2021,06,10,11,47,15.40
2021,06,10,11,48,15.50
2021,06,10,11,49,15.60
2021,06,10,11,50,15.60
2021,06,10,11,51,15.60
2021,06,10,11,52,15.70
2021,06,10,11,53,15.70
2021,06,10,11,54,15.80
2021,06,10,11,55,15.80
2021,06,10,11,56,15.80
2021,06,10,11,57,15.70
2021,06,10,11,58,15.70
2021,06,10,11,59,15.70
2021,06,10,12,00,15.60
2021,06,10,12,01,15.60
2021,06,10,12,02,15.50
2021,06,10,12,03,15.50
2021,06,10,12,04,15.40
2021,06,10,12,05,15.40
2021,06,10,12,06,15.30
2021,06,10,12,07,15.30
2021,06,10,12,08,15.30
2021,06,10,12,09,15.30
2021,06,10,12,10,15.30
2021,06,10,12,11,15.30
2021,06,10,12,12,15.30
2021,06,10,12,13,15.30
2021,06,10,12,14,15.30
2021,06,10,12,15,15.30
2021,06,10,12,16,15.20
2021,06,10,12,17,15.20
2021,06,10,12,18,15.10
2021,06,10,12,19,15.00
2021,06,10,12,20,15.00
2021,06,10,12,21,14.90
2021,06,10,12,22,14.90
2021,06,10,12,23,14.90
2021,06,10,12,24,14.90
2021,06,10,12,25,14.90
2021,06,10,12,26,15.00
2021,06,10,12,27,15.10
2021,06,10,12,28,15.10
2021,06,10,12,29,15.10
2021,06,10,12,30,15.10
2021,06,10,12,31,15.20
2021,06,10,12,32,15.20
2021,06,10,12,33,15.20
2021,06,10,12,34,15.10
2021,06,10,12,35,15.10
2021,06,10,12,36,15.10
2021,06,10,12,37,15.10
2021,06,10,12,38,15.10
2021,06,10,12,39,15.00
2021,06,10,12,40,14.90
2021,06,10,12,41,14.90
2021,06,10,12,42,14.90
2021,06,10,12,43,15.00
2021,06,10,12,44,15.10
2021,06,10,12,45,15.10
2021,06,10,12,46,15.10
2021,06,10,12,47,15.20
2021,06,10,12,48,15.30
2021,06,10,12,49,15.30
2021,06,10,12,50,15.30
2021,06,10,12,51,15.30
2021,06,10,12,52,15.30
2021,06,10,12,53,15.30
2021,06,10,12,54,15.30
2021,06,10,12,55,15.30
2021,06,10,12,56,15.30
2021,06,10,12,57,15.20
2021,06,10,12,58,15.20
2021,06,10,12,59,15.10
2021,06,10,13,00,15.10
2021,06,10,13,01,15.10
2021,06,10,13,02,15.20
2021,06,10,13,03,15.20
2021,06,10,13,04,15.20
2021,06,10,13,05,15.10
2021,06,10,13,06,15.10
2021,06,10,13,07,15.10
2021,06,10,13,08,15.00
2021,06,10,13,09,15.00
2021,06,10,13,10,15.10
2021,06,10,13,11,15.10
2021,06,10,13,12,15.20
2021,06,10,13,13,15.20
2021,06,10,13,14,15.20
2021,06,10,13,15,15.20
2021,06,10,13,16,15.20
2021,06,10,13,17,15.20
2021,06,10,13,18,15.30
2021,06,10,13,19,15.40
2021,06,10,13,20,15.40
2021,06,10,13,21,15.40
2021,06,10,13,22,15.40
2021,06,10,13,23,15.40
2021,06,10,13,24,15.40
2021,06,10,13,25,15.30
2021,06,10,13,26,15.10
2021,06,10,13,27,15.10
2021,06,10,13,28,15.00
2021,06,10,13,29,15.00
2021,06,10,13,30,15.00
2021,06,10,13,31,15.10
2021,06,10,13,32,15.10
2021,06,10,13,33,15.20
2021,06,10,13,34,15.20
2021,06,10,13,35,15.20
2021,06,10,13,36,15.20
2021,06,10,13,37,15.30
2021,06,10,13,38,15.40
2021,06,10,13,39,15.40
2021,06,10,13,40,15.30
2021,06,10,13,41,15.20
2021,06,10,13,42,15.20
2021,06,10,13,43,15.20
2021,06,10,13,44,15.20
2021,06,10,13,45,15.10
2021,06,10,13,46,15.00
2021,06,10,13,47,14.90
2021,06,10,13,48,14.90
2021,06,10,13,49,15.00
2021,06,10,13,50,14.90
2021,06,10,13,51,14.80
2021,06,10,13,52,14.80
2021,06,10,13,53,14.90
2021,06,10,13,54,14.90
2021,06,10,13,55,14.90
2021,06,10,13,56,15.00
2021,06,10,13,57,15.10
2021,06,10,13,58,15.20
2021,06,10,13,59,15.20
2021,06,10,14,00,15.30
2021,06,10,14,01,15.20
2021,06,10,14,02,15.20
2021,06,10,14,03,15.20
2021,06,10,14,04,15.20
2021,06,10,14,05,15.10
2021,06,10,14,06,15.00
2021,06,10,14,07,14.90
2021,06,10,14,08,14.90
2021,06,10,14,09,14.80
2021,06,10,14,10,14.80
2021,06,10,14,11,14.90
2021,06,10,14,12,15.00
2021,06,10,14,13,15.00
2021,06,10,14,14,15.00
2021,06,10,14,15,14.90
2021,06,10,14,16,15.00
2021,06,10,14,17,15.00
2021,06,10,14,18,15.10
2021,06,10,14,19,15.00
2021,06,10,14,20,15.10
2021,06,10,14,21,15.20
2021,06,10,14,22,15.30
2021,06,10,14,23,15.30
2021,06,10,14,24,15.40
2021,06,10,14,25,15.40
2021,06,10,14,26,15.50
2021,06,10,14,27,15.50
2021,06,10,14,28,15.50
2021,06,10,14,29,15.40
2021,06,10,14,30,15.40
2021,06,10,14,31,15.40
2021,06,10,14,32,15.40
2021,06,10,14,33,15.40
2021,06,10,14,34,15.50
2021,06,10,14,35,15.40
2021,06,10,14,36,15.40
2021,06,10,14,37,15.40
2021,06,10,14,38,15.40
2021,06,10,14,39,15.40
2021,06,10,14,40,15.40
2021,06,10,14,41,15.40
2021,06,10,14,42,15.40
2021,06,10,14,43,15.30
2021,06,10,14,44,15.20
2021,06,10,14,45,15.20
2021,06,10,14,46,15.20
2021,06,10,14,47,15.20
2021,06,10,14,48,15.30
2021,06,10,14,49,15.40
2021,06,10,14,50,15.50
2021,06,10,14,51,15.70
2021,06,10,14,52,15.70
2021,06,10,14,53,15.80
2021,06,10,14,54,15.80
2021,06,10,14,55,15.80
2021,06,10,14,56,15.80
2021,06,10,14,57,15.90
2021,06,10,14,58,15.80
2021,06,10,14,59,15.80
2021,06,10,15,00,15.80
2021,06,10,15,01,15.70
2021,06,10,15,02,15.70
2021,06,10,15,03,15.60
2021,06,10,15,04,15.50
2021,06,10,15,05,15.40
2021,06,10,15,06,15.30
2021,06,10,15,07,15.30
2021,06,10,15,08,15.20
2021,06,10,15,09,15.20
2021,06,10,15,10,15.20
2021,06,10,15,11,15.20
2021,06,10,15,12,15.20
2021,06,10,15,13,15.30
2021,06,10,15,14,15.30
2021,06,10,15,15,15.30
2021,06,10,15,16,15.30
2021,06,10,15,17,15.30
2021,06,10,15,18,15.30
2021,06,10,15,19,15.40
2021,06,10,15,20,15.50
2021,06,10,15,21,15.60
2021,06,10,15,22,15.80
2021,06,10,15,23,15.80
2021,06,10,15,24,15.90
2021,06,10,15,25,16.00
2021,06,10,15,26,16.00
2021,06,10,15,27,16.10
2021,06,10,15,28,16.10
2021,06,10,15,29,16.10
2021,06,10,15,30,16.10
2021,06,10,15,31,16.00
2021,06,10,15,32,16.00
2021,06,10,15,33,15.90
2021,06,10,15,34,15.80
2021,06,10,15,35,15.70
2021,06,10,15,36,15.60
2021,06,10,15,37,15.60
2021,06,10,15,38,15.50
2021,06,10,15,39,15.40
2021,06,10,15,40,15.40
2021,06,10,15,41,15.50
2021,06,10,15,42,15.50
2021,06,10,15,43,15.60
2021,06,10,15,44,15.60
2021,06,10,15,45,15.60
2021,06,10,15,46,15.60
2021,06,10,15,47,15.60
2021,06,10,15,48,15.60
2021,06,10,15,49,15.60
2021,06,10,15,50,15.50
2021,06,10,15,51,15.60
2021,06,10,15,52,15.60
2021,06,10,15,53,15.70
2021,06,10,15,54,15.70
2021,06,10,15,55,15.70
2021,06,10,15,56,15.70
2021,06,10,15,57,15.70
2021,06,10,15,58,15.70
2021,06,10,15,59,15.70
2021,06,10,16,00,15.70
2021,06,10,16,01,15.80
2021,06,10,16,02,15.90
2021,06,10,16,03,16.00
2021,06,10,16,04,16.10
2021,06,10,16,05,16.20
2021,06,10,16,06,16.30
2021,06,10,16,07,16.30
2021,06,10,16,08,16.30
2021,06,10,16,09,16.10
2021,06,10,16,10,16.00
2021,06,10,16,11,16.00
2021,06,10,16,12,16.00
2021,06,10,16,13,16.10
2021,06,10,16,14,16.10
2021,06,10,16,15,16.20
2021,06,10,16,16,16.20
2021,06,10,16,17,16.30
2021,06,10,16,18,16.30
2021,06,10,16,19,16.40
2021,06,10,16,20,16.40
2021,06,10,16,21,16.50
2021,06,10,16,22,16.50
2021,06,10,16,23,16.40
2021,06,10,16,24,16.40
2021,06,10,16,25,16.40
2021,06,10,16,26,16.40
2021,06,10,16,27,16.50
2021,06,10,16,28,16.60
2021,06,10,16,29,16.60
2021,06,10,16,30,16.60
2021,06,10,16,31,16.60
2021,06,10,16,32,16.50
2021,06,10,16,33,16.40
2021,06,10,16,34,16.40
2021,06,10,16,35,16.30
2021,06,10,16,36,16.20
2021,06,10,16,37,16.10
2021,06,10,16,38,16.10
2021,06,10,16,39,16.00
2021,06,10,16,40,15.90
2021,06,10,16,41,15.80
2021,06,10,16,42,15.80
2021,06,10,16,43,15.80
2021,06,10,16,44,15.90
2021,06,10,16,45,16.00
2021,06,10,16,46,16.10
2021,06,10,16,47,16.10
2021,06,10,16,48,16.20
2021,06,10,16,49,16.20
2021,06,10,16,50,16.10
2021,06,10,16,51,16.20
2021,06,10,16,52,16.30
2021,06,10,16,53,16.40
2021,06,10,16,54,16.40
2021,06,10,16,55,16.40
2021,06,10,16,56,16.40
2021,06,10,16,57,16.40
2021,06,10,16,58,16.40
2021,06,10,16,59,16.40
2021,06,10,17,00,16.40
2021,06,10,17,01,16.30
2021,06,10,17,02,16.30
2021,06,10,17,03,16.20
2021,06,10,17,04,16.20
2021,06,10,17,05,16.10
2021,06,10,17,06,16.00
2021,06,10,17,07,15.90
2021,06,10,17,08,15.80
2021,06,10,17,09,15.70
2021,06,10,17,10,15.70
2021,06,10,17,11,15.60
2021,06,10,17,12,15.60
2021,06,10,17,13,15.60
2021,06,10,17,14,15.60
2021,06,10,17,15,15.60
2021,06,10,17,16,15.60
2021,06,10,17,17,15.50
2021,06,10,17,18,15.50
2021,06,10,17,19,15.50
2021,06,10,17,20,15.50
2021,06,10,17,21,15.50
2021,06,10,17,22,15.60
2021,06,10,17,23,15.50
2021,06,10,17,24,15.40
2021,06,10,17,25,15.40
2021,06,10,17,26,15.30
2021,06,10,17,27,15.30
2021,06,10,17,28,15.20
2021,06,10,17,29,15.20
2021,06,10,17,30,15.10
2021,06,10,17,31,15.00
2021,06,10,17,32,15.00
2021,06,10,17,33,14.90
2021,06,10,17,34,14.90
2021,06,10,17,35,14.90
2021,06,10,17,36,14.90
2021,06,10,17,37,14.80
2021,06,10,17,38,14.80
2021,06,10,17,39,14.80